{"data":{"norad_id":68557,"intl_designator":"2026-070R","name":"STARLINK-37210","alt_names":[],"object_type":"PAYLOAD","status":"ACTIVE","operator":null,"country":"US","launch_date":"2026-04-02","launch_site_code":"AFETR","launch_vehicle":null,"mission":null,"orbit_class":"UNKNOWN","rcs_meters":null,"size_class":null,"mass_kg":null,"dimensions":null,"purposes":["comms"],"wikipedia_slug":null,"has_3d_model":false,"image_url":null,"decayed_at":null,"tle_current":{"epoch":"2026-09-19T22:43:35.304960Z","epoch_age_seconds":93062,"freshness":"FRESH","line1":"1 68557U 26070R   26262.94693640  .00007227  00000+0  22486-3 0  9997","line2":"2 68557  53.1582 176.2139 0001482  42.1200 317.9916 15.34396137 26354","mean_motion":15.34396137,"eccentricity":0.0001482,"inclination_deg":53.1582,"raan_deg":176.2139,"arg_perigee_deg":42.12,"mean_anomaly_deg":317.9916,"bstar":0.00022486,"rev_number":2635,"period_min":93.847994352713,"perigee_km":461.7009076561,"apogee_km":463.72853610647,"semimajor_km":6840.8517218813,"source":"CELESTRAK","updated_at":"2026-09-20T09:00:43.935854Z"}}}